Simultaneous Nadir Overpasses (SNOs) Predictions

Prediction of SNOs between GOES-16 and NOAA-20 Satellite Orbit:

Table of predicted SNOs for the next 14.0 days since TLE Epoch: 12/26/2020
Index Date Time (GOES-16) GOES-16 Lat,Lon NOAA-20 Lat,Lon Distance(km) Time Diff (sec)
1 12/26/2020 18:39:01 -0.01, -75.23 -0.83, -78.79 407.03 80
2 12/27/2020 18:22:57 -0.02, -75.24 0.18, -74.26 110.94 80
3 12/29/2020 06:44:45 0.02, -75.26 0.98, -79.53 487.54 80
4 12/30/2020 06:23:21 0.02, -75.27 -0.04, -75.00 30.08 80
5 01/01/2021 18:26:34 -0.01, -75.30 -0.10, -75.78 54.32 80
6 01/02/2021 18:10:29 -0.00, -75.32 0.92, -71.25 463.79 80
7 01/04/2021 06:32:17 -0.00, -75.35 0.24, -76.53 133.76 80
8 01/05/2021 06:10:53 -0.01, -75.37 -0.78, -72.00 384.48 80
9 01/06/2021 18:32:49 0.01, -75.40 -0.42, -77.30 216.77 80
10 01/07/2021 18:16:45 0.01, -75.42 0.59, -72.76 302.15 80
